H1 CPF 2 NER 2025 9 17 9 260 01 glonass140 H2 1903001 9140 44299 2025 9 17 0 0 0 2025 9 20 23 45 0 900 1 1 0 0 0 1 H9 10 0 60935 0.00000 0 252231.176 -11894597.030 22589001.810 10 0 60935 900.00000 0 2813075.302 -10749968.565 22986627.778 10 0 60935 1800.00000 0 5470053.885 -9786063.551 22939086.372 10 0 60935 2700.00000 0 8157821.085 -9025781.617 22447327.813 10 0 60935 3600.00000 0 10808331.626 -8480169.118 21520874.592 10 0 60935 4500.00000 0 13353438.080 -8148071.438 20177639.374 10 0 60935 5400.00000 0 15727502.044 -8016310.298 18443584.451 10 0 60935 6300.00000 0 17869912.559 -8060378.317 16352228.588 10 0 60935 7200.00000 0 19727408.628 -8245621.738 13944009.768 10 0 60935 8100.00000 0 21256110.360 -8528862.063 11265514.910 10 0 60935 9000.00000 0 22423174.941 -8860389.012 8368590.133 10 0 60935 9900.00000 0 23208008.594 -9186241.571 5309347.577 10 0 60935 10800.00000 0 23602983.867 -9450681.515 2147086.961 10 0 60935 11700.00000 0 23613631.828 -9598755.351 -1056848.030 10 0 60935 12600.00000 0 23258300.501 -9578836.395 -4240256.736 10 0 60935 13500.00000 0 22567293.184 -9345039.079 -7341289.005 10 0 60935 14400.00000 0 21581522.168 -8859402.465 -10299649.511 10 0 60935 15300.00000 0 20350733.885 -8093749.294 -13057775.037 10 0 60935 16200.00000 0 18931379.764 -7031140.276 -15561961.202 10 0 60935 17100.00000 0 17384222.182 -5666860.190 -17763415.991 10 0 60935 18000.00000 0 15771776.332 -4008892.040 -19619218.806 10 0 60935 18900.00000 0 14155695.810 -2077857.091 -21093165.639 10 0 60935 19800.00000 0 12594212.275 93578.817 -22156483.272 10 0 60935 20700.00000 0 11139737.237 2461809.647 -22788397.981 10 0 60935 21600.00000 0 9836727.184 4973859.513 -22976547.220 10 0 60935 22500.00000 0 8719902.058 7569354.565 -22717225.849 10 0 60935 23400.00000 0 7812892.084 10182814.732 -22015461.794 10 0 60935 24300.00000 0 7127369.743 12746170.097 -20884919.433 10 0 60935 25200.00000 0 6662702.969 15191397.005 -19347632.426 10 0 60935 26100.00000 0 6406143.556 17453163.692 -17433571.155 10 0 60935 27000.00000 0 6333541.827 19471374.795 -15180053.336 10 0 60935 27900.00000 0 6410556.267 21193508.205 -12631009.498 10 0 60935 28800.00000 0 6594305.624 22576646.463 -9836118.185 10 0 60935 29700.00000 0 6835392.179 23589117.820 -6849828.352 10 0 60935 30600.00000 0 7080209.026 24211678.759 -3730288.853 10 0 60935 31500.00000 0 7273432.263 24438189.166 -538206.846 10 0 60935 32400.00000 0 7360591.235 24275753.073 2664341.640 10 0 60935 33300.00000 0 7290606.930 23744320.539 5815124.907 10 0 60935 34200.00000 0 7018190.301 22875769.027 8852968.135 10 0 60935 35100.00000 0 6505998.585 21712504.615 11718941.191 10 0 60935 36000.00000 0 5726458.342 20305643.262 14357498.485 10 0 60935 36900.00000 0 4663178.330 18712849.805 16717548.918 10 0 60935 37800.00000 0 3311892.865 16995926.089 18753435.836 10 0 60935 38700.00000 0 1680896.179 15218249.614 20425808.962 10 0 60935 39600.00000 0 -209050.386 13442169.670 21702372.663 10 0 60935 40500.00000 0 -2325334.684 11726469.049 22558497.485 10 0 60935 41400.00000 0 -4624608.324 10123996.122 22977684.528 10 0 60935 42300.00000 0 -7054353.896 8679564.610 22951874.940 10 0 60935 43200.00000 0 -9554840.837 7428206.947 22481599.541 10 0 60935 44100.00000 0 -12061390.183 6393852.430 21575966.281 10 0 60935 45000.00000 0 -14506855.778 5588483.787 20252485.954 10 0 60935 45900.00000 0 -16824220.716 5011806.169 18536739.230 10 0 60935 46800.00000 0 -18949202.880 4651441.546 16461890.742 10 0 60935 47700.00000 0 -20822762.730 4483639.950 14068058.594 10 0 60935 48600.00000 0 -22393410.223 4474477.685 11401550.249 10 0 60935 49500.00000 0 -23619215.519 4581492.430 8513978.257 10 0 60935 50400.00000 0 -24469439.892 4755686.857 5461271.688 10 0 60935 51300.00000 0 -24925718.628 4943816.809 2302601.381 10 0 60935 52200.00000 0 -24982745.918 5090867.808 -900761.006 10 0 60935 53100.00000 0 -24648432.307 5142615.345 -4086628.433 10 0 60935 54000.00000 0 -23943527.162 5048160.466 -7193105.514 10 0 60935 54900.00000 0 -22900721.071 4762332.674 -10159793.573 10 0 60935 55800.00000 0 -21563264.999 4247857.447 -12928969.790 10 0 60935 56700.00000 0 -19983163.516 3477195.175 -15446716.896 10 0 60935 57600.00000 0 -18219017.538 2433972.028 -17663980.743 10 0 60935 58500.00000 0 -16333606.969 1113940.284 -19537534.358 10 0 60935 59400.00000 0 -14391314.780 -474574.476 -21030829.025 10 0 60935 60300.00000 0 -12455500.774 -2310760.300 -22114715.157 10 0 60935 61200.00000 0 -10585935.564 -4361938.231 -22768018.351 10 0 60935 62100.00000 0 -8836402.648 -6584689.838 -22977958.917 10 0 60935 63000.00000 0 -7252569.398 -8926447.120 -22740406.319 10 0 60935 63900.00000 0 -5870216.311 -11327479.197 -22059963.239 10 0 60935 64800.00000 0 -4713898.685 -13723193.356 -20949877.387 10 0 60935 65700.00000 0 -3796096.451 -16046654.513 -19431782.605 10 0 60935 66600.00000 0 -3116887.161 -18231217.719 -17535274.269 10 0 60935 67500.00000 0 -2664154.860 -20213163.411 -15297327.353 10 0 60935 68400.00000 0 -2414324.686 -21934224.821 -12761568.737 10 0 60935 69300.00000 0 -2333590.716 -23343901.437 -9977418.434 10 0 60935 70200.00000 0 -2379583.483 -24401461.440 -6999117.076 10 0 60935 71100.00000 0 -2503404.920 -25077549.269 -3884659.463 10 0 60935 72000.00000 0 -2651942.906 -25355331.253 -694655.898 10 0 60935 72900.00000 0 -2770365.866 -25231132.002 2508855.488 10 0 60935 73800.00000 0 -2804690.407 -24714535.906 5663621.405 10 0 60935 74700.00000 0 -2704312.263 -23827950.794 8708386.598 10 0 60935 75600.00000 0 -2424392.736 -22605653.548 11584083.478 10 0 60935 76500.00000 0 -1927999.359 -21092359.127 14234974.896 10 0 60935 77400.00000 0 -1187910.348 -19341374.286 16609728.042 10 0 60935 78300.00000 0 -188006.884 -17412414.234 18662399.255 10 0 60935 79200.00000 0 1075805.131 -15369174.052 20353311.654 10 0 60935 80100.00000 0 2595182.376 -13276756.324 21649809.782 10 0 60935 81000.00000 0 4349457.774 -11199061.776 22526878.100 10 0 60935 81900.00000 0 6306276.033 -9196250.615 22967612.762 10 0 60935 82800.00000 0 8422725.146 -7322378.917 22963538.814 10 0 60935 83700.00000 0 10646917.657 -5623306.718 22514767.691 10 0 60935 84600.00000 0 12919957.186 -4134963.119 21629992.600 10 0 60935 85500.00000 0 15178209.930 -2882038.882 20326322.040 10 0 60936 0.00000 0 17355788.182 -1877159.573 18628954.599 10 0 60936 900.00000 0 19387145.406 -1120572.002 16570699.623 10 0 60936 1800.00000 0 21209673.492 -600357.522 14191354.388 10 0 60936 2700.00000 0 22766199.129 -293161.029 11536945.560 10 0 60936 3600.00000 0 24007273.135 -165406.360 8658850.476 10 0 60936 4500.00000 0 24893158.715 -174946.616 5612813.187 10 0 60936 5400.00000 0 25395435.261 -273080.300 2457873.389 10 0 60936 6300.00000 0 25498150.067 -406848.564 -744771.835 10 0 60936 7200.00000 0 25198468.814 -521516.687 -3932951.812 10 0 60936 8100.00000 0 24506796.501 -563134.789 -7044728.810 10 0 60936 9000.00000 0 23446362.479 -481069.025 -10019603.711 10 0 60936 9900.00000 0 22052285.888 -230395.305 -12799696.916 10 0 60936 10800.00000 0 20370159.666 225946.899 -15330880.944 10 0 60936 11700.00000 0 18454211.695 915333.297 -17563841.968 10 0 60936 12600.00000 0 16365119.718 1854044.827 -19455048.852 10 0 60936 13500.00000 0 14167571.313 3046330.463 -20967610.105 10 0 60936 14400.00000 0 11927671.101 4483984.317 -22072001.431 10 0 60936 15300.00000 0 9710303.902 6146456.781 -22746649.086 10 0 60936 16200.00000 0 7576564.417 8001496.804 -22978357.236 10 0 60936 17100.00000 0 5581361.152 10006299.855 -22762570.568 10 0 60936 18000.00000 0 3771294.994 12109114.578 -22103466.716 10 0 60936 18900.00000 0 2182901.108 14251241.592 -21013876.477 10 0 60936 19800.00000 0 841327.411 16369341.139 -19515033.165 10 0 60936 20700.00000 0 -240495.616 18397952.978 -17636155.973 10 0 60936 21600.00000 0 -1062159.980 20272122.763 -15413875.520 10 0 60936 22500.00000 0 -1635548.585 21930024.492 -12891513.008 10 0 60936 23400.00000 0 -1984078.370 23315468.589 -10118227.507 10 0 60936 24300.00000 0 -2141451.884 24380190.017 -7148048.598 10 0 60936 25200.00000 0 -2149971.971 25085820.163 -4038814.044 10 0 60936 26100.00000 0 -2058492.696 25405459.653 -851034.126 10 0 60936 27000.00000 0 -1920095.081 25324786.410 2353294.190 10 0 60936 27900.00000 0 -1789587.606 24842653.010 5511899.297 10 0 60936 28800.00000 0 -1720938.625 23971149.213 8563448.696 10 0 60936 29700.00000 0 -1764750.289 22735128.172 11448740.380 10 0 60936 30600.00000 0 -1965881.383 21171217.391 14111848.463 10 0 60936 31500.00000 0 -2361319.673 19326357.035 16501200.973 10 0 60936 32400.00000 0 -2978393.463 17255927.680 18570569.501 10 0 60936 33300.00000 0 -3833397.376 15021546.283 20279952.491 10 0 60936 34200.00000 0 -4930689.834 12688622.505 21596336.248 10 0 60936 35100.00000 0 -6262299.845 10323776.804 22494320.361 10 0 60936 36000.00000 0 -7808059.573 7992226.893 22956596.845 10 0 60936 36900.00000 0 -9536257.401 5755249.931 22974275.006 10 0 60936 37800.00000 0 -11404784.902 3667824.288 22547046.786 10 0 60936 38700.00000 0 -13362730.873 1776547.028 21683190.019 10 0 60936 39600.00000 0 -15352357.327 117911.818 20399409.759 10 0 60936 40500.00000 0 -17311376.655 -1282982.813 18720520.493 10 0 60936 41400.00000 0 -19175436.687 -2413242.629 16678974.713 10 0 60936 42300.00000 0 -20880711.596 -3272471.583 14314245.974 10 0 60936 43200.00000 0 -22366491.878 -3872538.999 11672077.153 10 0 60936 44100.00000 0 -23577666.221 -4236830.185 8803607.106 10 0 60936 45000.00000 0 -24466992.016 -4399011.987 5764391.433 10 0 60936 45900.00000 0 -24997059.524 -4401365.101 2613335.188 10 0 60936 46800.00000 0 -25141866.939 -4292753.144 -588442.594 10 0 60936 47700.00000 0 -24887939.412 -4126314.031 -3778790.997 10 0 60936 48600.00000 0 -24234943.890 -3956971.164 -6895733.181 10 0 60936 49500.00000 0 -23195772.525 -3838869.901 -9878672.630 10 0 60936 50400.00000 0 -21796089.719 -3822848.365 -12669575.782 10 0 60936 51300.00000 0 -20073360.407 -3954050.476 -15214107.462 10 0 60936 52200.00000 0 -18075399.139 -4269783.415 -17462696.321 10 0 60936 53100.00000 0 -15858499.847 -4797711.612 -19371508.767 10 0 60936 54000.00000 0 -13485223.988 -5554465.217 -20903311.721 10 0 60936 54900.00000 0 -11021939.235 -6544723.574 -22028206.768 10 0 60936 55800.00000 0 -8536211.546 -7760814.103 -22724220.797 10 0 60936 56700.00000 0 -6094159.629 -9182845.165 -22977741.180 10 0 60936 57600.00000 0 -3757882.410 -10779368.795 -22783786.600 10 0 60936 58500.00000 0 -1583067.068 -12508546.636 -22146107.913 10 0 60936 59400.00000 0 383122.481 -14319770.974 -21077116.849 10 0 60936 60300.00000 0 2103788.649 -16155673.358 -19597643.719 10 0 60936 61200.00000 0 3553602.385 -17954436.620 -17736528.831 10 0 60936 62100.00000 0 4719610.868 -19652313.107 -15530055.595 10 0 60936 63000.00000 0 5601518.001 -21186243.019 -13021236.616 10 0 60936 63900.00000 0 6211427.476 -22496462.297 -10258967.105 10 0 60936 64800.00000 0 6573061.021 -23528989.942 -7297062.738 10 0 60936 65700.00000 0 6720486.795 -24237889.684 -4193201.488 10 0 60936 66600.00000 0 6696413.666 -24587210.578 -1007791.027 10 0 60936 67500.00000 0 6550125.489 -24552524.879 2197215.265 10 0 60936 68400.00000 0 6335144.600 -24121998.755 5359529.666 10 0 60936 69300.00000 0 6106724.960 -23296951.379 8417744.443 10 0 60936 70200.00000 0 5919282.197 -22091879.697 11312524.945 10 0 60936 71100.00000 0 5823870.008 -20533948.752 13987758.086 10 0 60936 72000.00000 0 5865809.921 -18661969.865 16391634.021 10 0 60936 72900.00000 0 6082574.393 -16524910.236 18477640.617 10 0 60936 73800.00000 0 6502012.169 -14179996.781 20205452.379 10 0 60936 74700.00000 0 7140990.096 -11690493.441 21541697.814 10 0 60936 75600.00000 0 8004507.929 -9123244.282 22460591.782 10 0 60936 76500.00000 0 9085322.927 -6546083.725 22944422.008 10 0 60936 77400.00000 0 10364099.826 -4025220.372 22983881.649 10 0 60936 78300.00000 0 11810080.164 -1622701.405 22578242.498 10 0 60936 79200.00000 0 13382243.638 605939.008 21735366.170 10 0 60936 80100.00000 0 15030913.954 2613751.572 20471553.253 10 0 60936 81000.00000 0 16699743.442 4364079.803 18811233.140 10 0 60936 81900.00000 0 18327995.052 5831834.689 16786499.877 10 0 60936 82800.00000 0 19853027.882 7004284.344 14436502.012 10 0 60936 83700.00000 0 21212883.726 7881326.719 11806697.067 10 0 60936 84600.00000 0 22348867.537 8475234.629 8947983.705 10 0 60936 85500.00000 0 23208014.383 8809884.017 5915727.176 10 0 60937 0.00000 0 23745339.677 8919497.936 2768696.104 10 0 60937 900.00000 0 23925778.182 8846958.945 -432071.320 10 0 60937 1800.00000 0 23725728.908 8641760.771 -3624446.010 10 0 60937 2700.00000 0 23134140.792 8357685.791 -6746414.422 10 0 60937 3600.00000 0 22153091.200 8050306.334 -9737285.029 10 0 60937 4500.00000 0 20797831.667 7774415.913 -12538872.600 10 0 60937 5400.00000 0 19096297.181 7581499.611 -15096636.414 10 0 60937 6300.00000 0 17088098.022 7517351.562 -17360749.566 10 0 60937 7200.00000 0 14823035.072 7619941.410 -19287077.772 10 0 60937 8100.00000 0 12359199.701 7917621.307 -20838047.940 10 0 60937 9000.00000 0 9760736.938 8427750.635 -21983388.914 10 0 60937 9900.00000 0 7095364.960 9155798.018 -22700729.396 10 0 60937 10800.00000 0 4431754.280 10094959.919 -22976040.913 10 0 60937 11700.00000 0 1836875.896 11226313.238 -22803916.822 10 0 60937 12600.00000 0 -626570.862 12519496.549 -22187681.543 10 0 60937 13500.00000 0 -2902543.529 13933892.143 -21139327.688 10 0 60937 14400.00000 0 -4943755.331 15420259.687 -19679282.093 10 0 60937 15300.00000 0 -6713400.316 16922752.922 -17836005.247 10 0 60937 16200.00000 0 -8186433.313 18381234.475 -15645431.996 10 0 60937 17100.00000 0 -9350352.146 19733790.992 -13150264.568 10 0 60937 18000.00000 0 -10205450.602 20919342.152 -10399132.189 10 0 60937 18900.00000 0 -10764533.226 21880233.030 -7445634.195 10 0 60937 19800.00000 0 -11052105.854 22564699.966 -4347286.110 10 0 60937 20700.00000 0 -11103078.088 22929105.492 -1164390.145 10 0 60937 21600.00000 0 -10961034.598 22939847.831 2041146.855 10 0 60937 22500.00000 0 -10676150.298 22574864.443 5207024.073 10 0 60937 23400.00000 0 -10302839.306 21824666.517 8271761.542 10 0 60937 24300.00000 0 -9897238.558 20692861.364 11175894.920 10 0 60937 25200.00000 0 -9514633.424 19196141.347 13863126.765 10 0 60937 26100.00000 0 -9206934.656 17363740.559 16281412.040 10 0 60937 27000.00000 0 -9020313.212 15236382.602 18383957.353 10 0 60937 27900.00000 0 -8993092.366 12864763.904 20130115.488 10 0 60937 28800.00000 0 -9153985.256 10307635.994 21486159.068 10 0 60937 29700.00000 0 -9520751.212 7629566.362 22425919.786 10 0 60937 30600.00000 0 -10099326.585 4898470.279 22931282.249 10 0 60937 31500.00000 0 -10883465.965 2183014.985 22992524.184 10 0 60937 32400.00000 0 -11854908.574 -449997.552 22608497.474 10 0 60937 33300.00000 0 -12984063.036 -2938162.561 21786647.225 10 0 60937 34200.00000 0 -14231182.389 -5225815.937 20542868.730 10 0 60937 35100.00000 0 -15547981.145 -7266093.948 18901204.915 10 0 60937 36000.00000 0 -16879627.943 -9022625.385 16893389.472 10 0 60937 36900.00000 0 -18167031.745 -10470787.265 14558243.570 10 0 60937 37800.00000 0 -19349327.182 -11598472.942 11940936.583 10 0 60937 38700.00000 0 -20366456.040 -12406341.355 9092123.860 10 0 60937 39600.00000 0 -21161737.406 -12907537.384 6066976.953 10 0 60937 40500.00000 0 -21684318.947 -13126895.201 2924124.005 10 0 60937 41400.00000 0 -21891406.213 -13099657.964 -275480.055 10 0 60937 42300.00000 0 -21750175.549 -12869767.566 -3469732.042 10 0 60937 43200.00000 0 -21239289.070 -12487796.328 -6596585.157 10 0 60937 44100.00000 0 -20349946.443 -12008607.897 -9595256.171 10 0 60937 45000.00000 0 -19086427.487 -11488846.265 -12407411.313 10 0 60937 45900.00000 0 -17466100.893 -10984359.412 -14978307.182 10 0 60937 46800.00000 0 -15518896.831 -10547667.118 -17257863.847 10 0 60937 47700.00000 0 -13286263.825 -10225580.828 -19201648.443 10 0 60937 48600.00000 0 -10819652.162 -10057077.196 -20771749.444 10 0 60937 49500.00000 0 -8178586.055 -10071516.274 -21937523.942 10 0 60937 50400.00000 0 -5428404.336 -10287280.767 -22676202.790 10 0 60937 51300.00000 0 -2637763.421 -10710894.944 -22973341.360 10 0 60937 52200.00000 0 123993.584 -11336661.418 -22823106.741 10 0 60937 53100.00000 0 2789492.045 -12146831.983 -22228395.427 10 0 60937 54000.00000 0 5295894.592 -13112306.000 -21200778.954 10 0 60937 54900.00000 0 7587276.483 -14193827.281 -19760278.338 10 0 60937 55800.00000 0 9616708.624 -15343629.178 -17934971.618 10 0 60937 56700.00000 0 11347961.652 -16507458.352 -15760442.193 10 0 60937 57600.00000 0 12756760.539 -17626891.490 -13279078.873 10 0 60937 58500.00000 0 13831538.225 -18641846.650 -10539241.714 10 0 60937 59400.00000 0 14573658.061 -19493182.489 -7594310.454 10 0 60937 60300.00000 0 14997097.450 -20125274.942 -4501634.874 10 0 60937 61200.00000 0 15127607.959 -20488461.823 -1321408.487 10 0 60937 62100.00000 0 15001389.371 -20541251.625 1884511.529 10 0 60937 63000.00000 0 14663335.744 -20252202.956 5053814.194 10 0 60937 63900.00000 0 14164929.445 -19601395.269 8124949.969 10 0 60937 64800.00000 0 13561873.763 -18581429.100 11038327.142 10 0 60937 65700.00000 0 12911565.348 -17197914.044 13737465.853 10 0 60937 66600.00000 0 12270513.914 -15469424.476 16170087.389 10 0 60937 67500.00000 0 11691818.342 -13426925.310 18289118.184 10 0 60937 68400.00000 0 11222805.309 -11112692.139 20053589.948 10 0 60937 69300.00000 0 10902929.201 -8578770.957 21429419.638 10 0 60937 70200.00000 0 10762020.752 -5885041.376 22390055.598 10 0 60937 71100.00000 0 10818956.908 -3096963.249 22916978.759 10 0 60937 72000.00000 0 11080806.792 -283099.248 23000050.527 10 0 60937 72900.00000 0 11542488.823 2487485.235 22637701.696 10 0 60937 73800.00000 0 12186952.956 5147838.805 21836959.441 10 0 60937 74700.00000 0 12985880.411 7635650.760 20613312.152 10 0 60937 75600.00000 0 13900872.016 9895584.910 18990414.528 10 0 60937 76500.00000 0 14885076.196 11881325.481 16999638.049 10 0 60937 77400.00000 0 15885189.420 13557251.621 14679474.541 10 0 60937 78300.00000 0 16843746.377 14899672.079 12074803.205 10 0 60937 79200.00000 0 17701604.891 15897569.472 9236033.968 10 0 60937 80100.00000 0 18400522.047 16552823.502 6218142.515 10 0 60937 81000.00000 0 18885713.770 16879903.981 3079614.553 10 0 60937 81900.00000 0 19108290.203 16905046.452 -118681.072 10 0 60937 82800.00000 0 19027463.921 16664944.827 -3314669.062 10 0 60937 83700.00000 0 18612437.036 16205015.787 -6446271.555 10 0 60937 84600.00000 0 17843886.304 15577307.920 -9452615.707 10 0 60937 85500.00000 0 16714981.963 14838143.710 -12275221.119 10 0 60938 0.00000 0 15231895.610 14045594.180 -14859143.219 10 0 60938 900.00000 0 13413772.830 13256892.729 -17154051.030 10 0 60938 1800.00000 0 11292171.784 12525899.058 -19115214.181 10 0 60938 2700.00000 0 8909986.833 11900719.588 -20704383.855 10 0 60938 3600.00000 0 6319902.579 11421586.744 -21890546.381 10 0 60938 4500.00000 0 3582441.008 11119087.079 -22650535.601 10 0 60938 5400.00000 0 763682.508 11012813.945 -22969491.397 10 0 60938 6300.00000 0 -2067244.764 11110502.287 -22841155.046 10 0 60938 7200.00000 0 -4840802.789 11407682.703 -22267995.292 10 0 60938 8100.00000 0 -7489699.035 11887869.750 -21261162.431 10 0 60938 9000.00000 0 -9951448.672 12523276.798 -19840271.106 10 0 60938 9900.00000 0 -12170736.805 13276027.188 -18033015.944 10 0 60938 10800.00000 0 -14101482.380 14099810.296 -15874627.545 10 0 60938 11700.00000 0 -15708517.927 14941912.085 -13407179.592 10 0 60938 12600.00000 0 -16968815.573 15745533.592 -10678760.970 10 0 60938 13500.00000 0 -17872209.005 16452298.562 -7742529.591 10 0 60938 14400.00000 0 -18421582.500 17004843.298 -4655667.102 10 0 60938 15300.00000 0 -18632520.751 17349378.307 -1478255.797 10 0 60938 16200.00000 0 -18532436.166 17438112.715 1727899.409 10 0 60938 17100.00000 0 -18159212.448 17231438.376 4900480.032 10 0 60938 18000.00000 0 -17559423.615 16699781.083 7977869.663 10 0 60938 18900.00000 0 -16786205.402 15825040.702 10900351.937 10 0 60938 19800.00000 0 -15896870.271 14601559.634 13611267.257 10 0 60938 20700.00000 0 -14950367.620 13036579.151 16058105.846 10 0 60938 21600.00000 0 -14004696.704 11150164.753 18193516.438 10 0 60938 22500.00000 0 -13114381.120 8974603.883 19976211.933 10 0 60938 23400.00000 0 -12328110.557 6553301.238 21371755.619 10 0 60938 24300.00000 0 -11686647.941 3939217.496 22353214.152 10 0 60938 25200.00000 0 -11221088.608 1192915.839 22901666.060 10 0 60938 26100.00000 0 -10951543.281 -1619703.527 23006557.269 10 0 60938 27000.00000 0 -10886298.812 -4429888.147 22665897.859 10 0 60938 27900.00000 0 -11021490.955 -7168636.036 21886296.964 10 0 60938 28800.00000 0 -11341302.294 -9769310.217 20682835.456 10 0 60938 29700.00000 0 -11818676.895 -12170158.573 19078778.708 10 0 60938 30600.00000 0 -12416522.020 -14316636.316 17105134.401 10 0 60938 31500.00000 0 -13089347.128 -16163436.141 14800063.003 10 0 60938 32400.00000 0 -13785272.251 -17676142.979 12208151.142 10 0 60938 33300.00000 0 -14448322.319 -18832445.307 9379560.619 10 0 60938 34200.00000 0 -15020911.808 -19622852.974 6369068.301 10 0 60938 35100.00000 0 -15446415.758 -20050891.710 3235014.356 10 0 60938 36000.00000 0 -15671719.075 -20132766.037 38178.337 10 0 60938 36900.00000 0 -15649636.439 -19896504.420 -3159395.603 10 0 60938 37800.00000 0 -15341100.048 -19380622.199 -6295601.800 10 0 60938 38700.00000 0 -14717021.742 -18632358.187 -9309481.022 10 0 60938 39600.00000 0 -13759749.352 -17705559.002 -12142409.389 10 0 60938 40500.00000 0 -12464054.029 -16658300.214 -14739244.581 10 0 60938 41400.00000 0 -10837604.828 -15550344.760 -17049406.408 10 0 60938 42300.00000 0 -8900908.456 -14440546.168 -19027869.911 10 0 60938 43200.00000 0 -6686714.632 -13384306.577 -20636050.996 10 0 60938 44100.00000 0 -4238910.079 -12431197.359 -21842566.725 10 0 60938 45000.00000 0 -1610945.867 -11622843.278 -22623854.854 10 0 60938 45900.00000 0 1136137.437 -10991159.999 -22964640.109 10 0 60938 46800.00000 0 3936005.269 -10557019.728 -22858237.698 10 0 60938 47700.00000 0 6719550.048 -10329401.613 -22306687.815 10 0 60938 48600.00000 0 9417532.794 -10305062.886 -21320718.238 10 0 60938 49500.00000 0 11963235.414 -10468744.588 -19919535.536 10 0 60938 50400.00000 0 14295012.989 -10793902.921 -18130448.842 10 0 60938 51300.00000 0 16358639.606 -11243934.856 -15988333.531 10 0 60938 52200.00000 0 18109349.908 -11773845.517 -13534945.403 10 0 60938 53100.00000 0 19513491.300 -12332285.928 -10818099.110 10 0 60938 54000.00000 0 20549718.335 -12863873.935 -7890727.402 10 0 60938 54900.00000 0 21209680.189 -13311698.982 -4809840.235 10 0 60938 55800.00000 0 21498173.702 -13619903.641 -1635405.005 10 0 60938 56700.00000 0 21432757.191 -13736231.657 1570829.334 10 0 60938 57600.00000 0 21042843.148 -13614433.866 4746540.383 10 0 60938 58500.00000 0 20368309.908 -13216429.696 7830048.208 10 0 60938 59400.00000 0 19457692.631 -12514132.575 10761514.780 10 0 60938 60300.00000 0 18366031.359 -11490862.162 13484103.313 10 0 60938 61200.00000 0 17152467.991 -10142283.997 15945075.016 10 0 60938 62100.00000 0 15877694.008 -8476837.256 18096802.441 10 0 60938 63000.00000 0 14601356.422 -6515632.797 19897680.680 10 0 60938 63900.00000 0 13379530.545 -4291825.815 21312919.843 10 0 60938 64800.00000 0 12262364.762 -1849489.082 22315204.913 10 0 60938 65700.00000 0 11291994.780 757966.840 22885211.583 10 0 60938 66600.00000 0 10500813.289 3469761.538 23011969.460 10 0 60938 67500.00000 0 9910165.988 6220020.381 22693066.695 10 0 60938 68400.00000 0 9529527.132 8940264.949 21934692.842 10 0 60938 69300.00000 0 9356188.077 11562016.707 20751519.434 10 0 60938 70200.00000 0 9375471.120 14019407.805 19166420.460 10 0 60938 71100.00000 0 9561459.400 16251692.461 17210037.565 10 0 60938 72000.00000 0 9878212.402 18205556.216 14920197.480 10 0 60938 72900.00000 0 10281416.492 19837128.374 12341191.777 10 0 60938 73800.00000 0 10720401.806 21113614.759 9522931.569 10 0 60938 74700.00000 0 11140441.355 22014483.181 6519992.299 10 0 60938 75600.00000 0 11485236.123 22532152.251 3390565.965 10 0 60938 76500.00000 0 11699481.733 22672154.506 195340.229 10 0 60938 77400.00000 0 11731408.374 22452766.573 -3003674.422 10 0 60938 78300.00000 0 11535186.267 21904121.376 -6144346.908 10 0 60938 79200.00000 0 11073094.197 21066839.104 -9165633.794 10 0 60938 80100.00000 0 10317358.134 19990234.074 -12008769.654 10 0 60938 81000.00000 0 9251580.640 18730172.637 -14618415.879 10 0 60938 81900.00000 0 7871698.727 17346672.197 -16943744.934 10 0 60938 82800.00000 0 6186427.666 15901342.529 -18939438.186 10 0 60938 83700.00000 0 4217169.883 14454777.412 -20566577.202 10 0 60938 84600.00000 0 1997390.646 13064006.748 -21793410.529 10 0 60938 85500.00000 0 -428515.114 11780116.867 -22595980.418 99